Time,TemperatureF,DewpointF,PressureIn,WindDirection,WindDirectionDegrees,WindSpeedMPH,WindSpeedGustMPH,Humidity,HourlyPrecipIn,Conditions,Clouds,dailyrainin,SoftwareType,DateUTC
2013-01-27 00:02:00,19.9,16.7,30.06,East,82,0.0,0.0,87,0.00,,,0.00,meteohub,2013-01-26 23:02:00,
2013-01-27 00:32:00,20.1,16.9,30.06,East,82,0.0,1.0,87,0.00,,,0.00,meteohub,2013-01-26 23:32:00,
2013-01-27 01:02:00,20.5,17.2,30.05,SE,126,0.0,2.0,87,0.00,,,0.00,meteohub,2013-01-27 00:02:00,
2013-01-27 01:32:00,20.8,17.8,30.04,SW,227,0.0,4.0,88,0.00,,,0.00,meteohub,2013-01-27 00:32:00,
2013-01-27 02:02:00,22.1,19.0,30.04,NW,320,0.0,2.0,88,0.00,,,0.00,meteohub,2013-01-27 01:02:00,
2013-01-27 02:32:00,22.5,19.4,30.02,ESE,111,0.0,1.0,88,0.00,,,0.00,meteohub,2013-01-27 01:32:00,
2013-01-27 03:02:00,23.4,20.3,30.01,ESE,112,0.0,2.0,88,0.00,,,0.00,meteohub,2013-01-27 02:02:00,
2013-01-27 03:32:00,24.3,20.7,30.01,WSW,251,0.0,4.0,86,0.00,,,0.00,meteohub,2013-01-27 02:32:00,
2013-01-27 04:02:00,22.8,19.2,30.01,SW,231,1.0,4.0,86,0.00,,,0.00,meteohub,2013-01-27 03:02:00,
2013-01-27 04:32:00,21.9,18.7,30.01,SW,223,4.0,4.0,87,0.00,,,0.00,meteohub,2013-01-27 03:32:00,
2013-01-27 05:02:00,22.3,19.0,30.00,SE,137,2.0,4.0,87,0.00,,,0.00,meteohub,2013-01-27 04:02:00,
2013-01-27 05:32:00,22.3,19.0,29.99,South,178,0.0,3.0,87,0.00,,,0.00,meteohub,2013-01-27 04:32:00,
2013-01-27 06:02:00,22.5,19.4,29.99,South,178,0.0,2.0,88,0.00,,,0.00,meteohub,2013-01-27 05:02:00,
2013-01-27 06:32:00,24.6,21.9,29.99,ENE,61,2.0,3.0,89,0.00,,,0.00,meteohub,2013-01-27 05:32:00,
2013-01-27 07:02:00,24.3,21.6,29.99,SE,142,0.0,3.0,89,0.00,,,0.00,meteohub,2013-01-27 06:02:00,
2013-01-27 07:32:00,24.4,21.9,29.98,SE,142,1.0,2.0,90,0.00,,,0.00,meteohub,2013-01-27 06:32:00,
2013-01-27 08:02:00,25.3,23.0,29.98,SE,142,0.0,1.0,91,0.00,,,0.00,meteohub,2013-01-27 07:02:00,
2013-01-27 08:32:00,27.7,24.6,29.97,East,81,2.0,3.0,88,0.00,,,0.00,meteohub,2013-01-27 07:32:00,
2013-01-27 09:02:00,28.8,25.3,29.96,NE,44,0.0,3.0,87,0.00,,,0.00,meteohub,2013-01-27 08:02:00,
2013-01-27 09:32:00,29.3,25.7,29.95,NE,44,0.0,2.0,86,0.00,,,0.00,meteohub,2013-01-27 08:32:00,
2013-01-27 10:02:00,29.8,25.9,29.95,East,100,2.0,3.0,85,0.00,,,0.00,meteohub,2013-01-27 09:02:00,
2013-01-27 10:32:00,30.6,26.6,29.94,NNE,15,0.0,5.0,85,0.00,,,0.00,meteohub,2013-01-27 09:32:00,
2013-01-27 11:02:00,31.3,26.8,29.94,ESE,123,0.0,2.0,83,0.00,,,0.00,meteohub,2013-01-27 10:02:00,
2013-01-27 11:32:00,32.0,27.7,29.93,SW,234,5.0,6.0,84,0.00,,,0.00,meteohub,2013-01-27 10:32:00,
2013-01-27 12:02:00,32.5,28.2,29.92,SE,135,1.0,3.0,84,0.00,,,0.00,meteohub,2013-01-27 11:02:00,
2013-01-27 12:32:00,32.9,28.2,29.91,West,279,2.0,6.0,83,0.00,,,0.00,meteohub,2013-01-27 11:32:00,
2013-01-27 13:02:00,34.0,29.1,29.90,West,274,2.0,5.0,82,0.00,,,0.00,meteohub,2013-01-27 12:02:00,
2013-01-27 13:32:00,34.9,29.7,29.89,SW,231,0.0,6.0,81,0.00,,,0.00,meteohub,2013-01-27 12:32:00,
2013-01-27 14:02:00,35.2,30.0,29.88,SSW,198,1.0,4.0,81,0.00,,,0.00,meteohub,2013-01-27 13:02:00,
2013-01-27 14:32:00,35.2,30.0,29.87,SE,137,2.0,3.0,81,0.00,,,0.00,meteohub,2013-01-27 13:32:00,
2013-01-27 15:02:00,33.6,28.9,29.85,SE,141,0.0,4.0,83,0.00,,,0.00,meteohub,2013-01-27 14:02:00,
2013-01-27 15:32:00,33.4,29.1,29.83,ESE,116,0.0,6.0,84,0.00,,,0.00,meteohub,2013-01-27 14:32:00,
2013-01-27 16:02:00,33.3,28.9,29.84,SSW,203,0.0,5.0,84,0.00,,,0.00,meteohub,2013-01-27 15:02:00,
2013-01-27 16:32:00,33.1,29.1,29.83,South,182,0.0,7.0,85,0.00,,,0.00,meteohub,2013-01-27 15:32:00,
2013-01-27 17:02:00,33.1,29.3,29.82,ESE,119,0.0,2.0,86,0.00,,,0.00,meteohub,2013-01-27 16:02:00,
2013-01-27 17:32:00,32.7,29.3,29.81,ESE,121,0.0,1.0,87,0.00,,,0.00,meteohub,2013-01-27 16:32:00,
2013-01-27 18:02:00,32.5,29.7,29.81,ESE,122,0.0,1.0,89,0.00,,,0.00,meteohub,2013-01-27 17:02:00,
2013-01-27 18:32:00,32.4,30.0,29.82,ESE,122,0.0,0.0,91,0.00,,,0.00,meteohub,2013-01-27 17:32:00,
2013-01-27 19:02:00,31.8,30.0,29.81,ESE,122,0.0,1.0,93,0.00,,,0.00,meteohub,2013-01-27 18:02:00,
2013-01-27 19:32:00,31.6,29.8,29.81,SE,146,0.0,1.0,93,0.00,,,0.00,meteohub,2013-01-27 18:32:00,
2013-01-27 20:02:00,31.6,30.2,29.80,SE,146,0.0,1.0,94,0.00,,,0.00,meteohub,2013-01-27 19:02:00,
2013-01-27 20:32:00,31.6,29.8,29.79,SE,146,0.0,1.0,93,0.00,,,0.00,meteohub,2013-01-27 19:32:00,
2013-01-27 21:02:00,31.6,29.8,29.78,SE,146,0.0,1.0,93,0.00,,,0.00,meteohub,2013-01-27 20:02:00,
2013-01-27 21:32:00,31.6,30.2,29.78,SE,146,0.0,2.0,94,0.00,,,0.00,meteohub,2013-01-27 20:32:00,
2013-01-27 22:02:00,31.8,30.6,29.78,SE,146,0.0,0.0,95,0.00,,,0.00,meteohub,2013-01-27 21:02:00,
2013-01-27 22:32:00,31.8,30.7,29.78,SE,146,0.0,0.0,96,0.00,,,0.00,meteohub,2013-01-27 21:32:00,
2013-01-27 23:02:00,33.3,32.5,29.79,WNW,294,0.0,4.0,97,0.00,,,0.00,meteohub,2013-01-27 22:02:00,
2013-01-27 23:32:00,33.1,32.0,29.80,NNW,333,1.0,2.0,96,0.00,,,0.00,meteohub,2013-01-27 22:32:00,